This is the latest recevied weather packets stored in our database for station/object KC5DAQ-25. If no packets are shown the sender has not sent any weather packets the latest 10 day(s).
| Time | Temp. | Humidity | Pressure | Rain* | Wind** | Luminosity | Snow |
|---|---|---|---|---|---|---|---|
| 1778260984 | 22.22° C | 82% | 1003.9 hPa | 0 mm | - | 172 W/m² | - |
| 1778260922 | 22.22° C | 82% | 1003.9 hPa | 0 mm | - | 172 W/m² | - |
| 1778260866 | 22.78° C | 82% | 1003.9 hPa | 0 mm | - | 172 W/m² | - |
| 1778260805 | 22.78° C | 82% | 1003.9 hPa | 0 mm | - | 172 W/m² | - |
| 1778260742 | 22.78° C | 82% | 1004 hPa | 0 mm | - | 183 W/m² | - |
| 1778260683 | 22.78° C | 82% | 1004 hPa | 0 mm | - | 183 W/m² | - |
| 1778260623 | 22.78° C | 83% | 1004 hPa | 0 mm | - | 253 W/m² | - |
| 1778260564 | 22.78° C | 83% | 1003.9 hPa | 0 mm | - | 253 W/m² | - |
| 1778260505 | 22.78° C | 83% | 1003.8 hPa | 0 mm | - | 253 W/m² | - |
| 1778260438 | 22.78° C | 83% | 1003.8 hPa | 0 mm | - | 253 W/m² | - |
| 1778260379 | 22.78° C | 83% | 1003.9 hPa | 0 mm | - | 237 W/m² | - |
| 1778260319 | 22.78° C | 82% | 1003.7 hPa | 0 mm | - | 237 W/m² | - |
| 1778260256 | 22.78° C | 82% | 1003.8 hPa | 0 mm | - | 237 W/m² | - |
| 1778260192 | 22.78° C | 82% | 1003.7 hPa | 0 mm | - | 246 W/m² | - |
| 1778260131 | 22.22° C | 82% | 1003.7 hPa | 0 mm | - | 246 W/m² | - |
| 1778260066 | 22.22° C | 82% | 1003.8 hPa | 0 mm | - | 255 W/m² | - |
| 1778260001 | 22.22° C | 82% | 1003.8 hPa | 0 mm | - | 257 W/m² | - |
| 1778259934 | 22.78° C | 82% | 1003.7 hPa | 0 mm | - | 257 W/m² | - |
| 1778259871 | 22.78° C | 82% | 1003.7 hPa | 0 mm | - | 257 W/m² | - |
| 1778259812 | 22.78° C | 82% | 1003.7 hPa | 0 mm | - | 257 W/m² | - |
| 1778259751 | 22.78° C | 82% | 1003.8 hPa | 0 mm | - | 257 W/m² | - |
| 1778259688 | 22.78° C | 82% | 1003.8 hPa | 0 mm | - | 248 W/m² | - |
| 1778259628 | 22.78° C | 82% | 1003.8 hPa | 0 mm | - | 237 W/m² | - |
| 1778259563 | 22.78° C | 82% | 1003.7 hPa | 0 mm | - | 229 W/m² | - |
| 1778259500 | 22.78° C | 82% | 1003.7 hPa | 0 mm | - | 227 W/m² | - |
* Rain latest hour (hover to see other rain measurements)
** Current wind speed in m/s (hover to see current wind gust speed)